Location: Raven Hill Discovery Center
(45.1336°N, 85.0553°W)
Time: 13:34:48
(UTC-04:00)

Daily predictions for brighter satellites

Satellite Brightness Start Highest point End
(mag) Time Altitude Azimuth Time Altitude Azimuth Time Altitude Azimuth
Cosmos 1500 Rocket 3.7 19:05:01 10° N 19:09:17 51° ENE 19:13:29 10° SSE
Meteor 1-11 4.3 19:04:11 10° N 19:10:00 87° E 19:15:43 10° S
APEX 4.1 19:13:32 10° SSE 19:15:44 18° ESE 19:17:47 10° ENE
Meteor 1-28 Rocket 3.2 19:12:40 10° NNE 19:16:26 60° E 19:20:09 10° S
Cosmos 1420 Rocket 4.2 19:11:35 10° NNW 19:16:49 54° ENE 19:21:59 10° SE
METEOR-M 4.3 19:14:11 10° SE 19:19:21 53° ENE 19:24:32 10° N
CZ-4C R/B 3.0 19:19:11 10° S 19:23:34 28° ESE 19:28:24 10° NE
Cosmos 1484 Rocket 3.4 19:20:13 10° S 19:23:53 59° W 19:27:35 10° NNW
SL-16 R/B 4.3 19:20:27 10° NW 19:25:28 33° WSW 19:30:28 10° SSW
Cosmos 44 Rocket 3.9 19:21:23 10° S 19:25:35 33° ESE 19:29:48 10° NE
Cosmos 1703 3.3 19:25:34 10° N 19:29:31 89° W 19:33:25 10° S
Lacrosse 5 rocket 3.5 19:26:29 10° WNW 19:29:41 19° NNW 19:32:45 10° NNE
SJ-6B 4.5 19:30:48 12° E 19:32:05 14° ENE 19:33:59 10° NNE
Cosmos 2333 4.4 19:26:48 10° NNW 19:32:25 55° ENE 19:38:03 10° SE
Sich 1 4.2 19:30:46 10° NNE 19:34:15 22° ENE 19:37:43 10° ESE
GENESIS II 4.3 19:30:58 10° SW 19:34:57 82° NW 19:38:57 10° NE
RESURS DK-1 3.3 19:31:39 10° NW 19:35:41 53° WSW 19:39:42 10° S
COSMO-SKYMED 1 2.7 19:32:08 10° NNE 19:36:25 54° E 19:40:40 10° S
Cosmos 2237 4.2 19:31:08 10° NNW 19:36:54 87° ENE 19:42:38 10° SSE
Cosmos 2366 rocket 4.2 19:31:03 10° SSW 19:37:16 76° W 19:43:27 10° N
Cosmos 1626 3.1 19:33:39 10° NNW 19:37:18 52° W 19:40:56 10° S
Cosmos 1908 3.3 19:33:34 10° S 19:37:22 52° E 19:41:11 10° NNE
Cosmos 2237 Rocket 3.2 19:36:49 10° N 19:41:37 27° NE 19:45:24 14° E
Gbstr 26 Del rocket 3.5 19:40:10 10° WNW 19:45:00 81° NNE 19:50:40 12° ESE
H-2A R/B 3.8 19:44:04 10° SE 19:47:17 25° ENE 19:50:34 10° NNE
Cosmos 2151 3.7 19:43:49 10° NNW 19:48:02 58° W 19:52:12 10° S
Cosmos 1805 Rocket 3.8 19:44:00 10° N 19:48:13 44° ENE 19:52:26 10° SSE
Cosmos 2227 Rocket 3.5 19:47:59 10° SE 19:51:34 17° E 19:52:07 17° E
SL-16 R/B 3.8 19:49:37 10° N 19:53:10 17° NE 19:54:46 15° ENE
Cosmos 2058 4.0 19:50:53 10° NNW 19:54:55 48° W 19:58:54 10° SSW
Cosmos 1666 Rocket 4.1 19:53:24 10° N 19:57:26 35° ENE 20:01:25 10° SE
YAOGAN 1 3.8 19:56:08 10° S 20:00:16 44° W 20:04:27 10° NNW
Cosmos 2360 Rocket 3.6 19:57:30 10° NW 20:02:45 40° WSW 20:07:59 10° S
Cosmos 1633 Rocket 3.7 19:58:58 10° N 20:03:01 34° ENE 20:06:13 15° SE
ALOS 2.2 19:58:51 10° SSE 20:03:31 79° ENE 20:08:12 10° N
Cosmos 1300 3.3 20:00:47 10° SSE 20:04:13 33° E 20:07:41 10° NNE
DMSP B5D1-3 4.5 19:59:17 10° NNE 20:04:24 65° ESE 20:09:30 10° S
Cosmos 1269 Rocket 4.0 20:00:07 10° S 20:05:19 64° ESE 20:10:33 10° NNE
Cosmos 1980 4.1 20:00:42 10° NNW 20:06:02 40° NE 20:09:17 21° ESE
ATLAS 5 CENTAUR R/B 4.4 20:07:33 10° NNW 20:09:30 12° N 20:11:30 10° NNE
Cosmos 1000 Rocket 4.4 20:03:34 10° N 20:09:51 84° E 20:16:01 10° S
Aureole 2 Rocket 2.6 20:08:47 10° NNW 20:12:43 77° ENE 20:16:42 10° SSE
Cosmos 1821 Rocket 3.9 20:07:07 10° S 20:13:14 71° E 20:19:30 10° NNE
Cosmos 1934 Rocket 4.1 20:07:10 10° SSE 20:13:19 55° E 20:19:31 10° NNE
COSMOS 2428 2.9 20:07:52 10° NNW 20:13:34 73° WSW 20:19:13 10° SSE
SPOT 3 Rocket 4.1 20:09:04 10° S 20:14:12 62° WSW 20:19:24 10° NNW
Abrixas 3.4 20:14:05 10° SW 20:15:20 26° SSW 20:15:20 26° SSW
Cosmos 2333 Rocket 2.2 20:10:51 10° NNW 20:16:35 66° ENE 20:21:36 14° SE
Cosmos 2239 Rocket 4.4 20:13:07 10° S 20:19:13 78° E 20:25:24 10° N
Cosmos 2219 3.1 20:14:45 10° SSW 20:20:29 79° ESE 20:26:15 10° NNE
CZ-4 R/B 4.5 20:18:00 10° SW 20:20:59 19° W 20:23:58 10° NW
FENGYUN 3A 3.8 20:15:55 10° S 20:21:19 78° WSW 20:26:46 10° NNW
BREEZE-M DEB (TANK) 4.2 20:01:40 10° WNW 20:23:17 84° NNE 20:26:20 30° ESE
USA 234 4.2 20:20:48 20° ENE 20:24:24 34° N 20:30:09 10° NW
Spot 2 Rocket 4.5 20:26:26 27° NE 20:26:26 27° NE 20:30:15 10° N
Cosmos 2221 3.3 20:22:00 10° SSW 20:26:14 54° WNW 20:30:32 10° N
BREEZE-M R/B 4.2 20:24:03 10° S 20:25:04 18° S 20:25:04 18° S
Iridium 4 Rocket 3.9 20:21:01 10° S 20:26:39 77° W 20:32:36 10° N
Cosmos 2297 Rocket 3.3 20:23:56 10° SSE 20:27:02 25° SE 20:27:02 25° SE
Cosmos 494 Rocket 4.2 20:24:51 10° S 20:29:37 42° ESE 20:30:46 36° ENE
Cosmos 2098 Rocket 3.6 20:24:58 10° SSW 20:29:42 79° W 20:35:48 10° N
Cosmos 2084 3.0 20:26:56 10° NW 20:30:45 86° NE 20:31:39 51° SE
Cosmos 1110 Rocket 3.9 20:27:58 10° NNW 20:33:19 74° ENE 20:36:35 24° SSE
Cosmos 44 3.5 20:29:52 10° SW 20:34:09 59° NW 20:37:04 20° NNE
Abrixas rocket 2.6 20:32:40 10° WNW 20:35:42 52° N 20:35:42 52° N
USA 32 4.3 20:30:58 10° N 20:35:59 44° E 20:36:35 43° E
Meteor 2-10 3.8 20:31:59 10° S 20:37:00 75° E 20:42:10 10° NNE
Meteor 2-2 Rocket 4.2 20:33:12 10° S 20:38:45 58° E 20:44:17 10° NNE
BREEZE-M DEB (TANK) 2.9 20:30:13 10° W 20:39:54 83° N 20:41:01 51° E
Cosmos 2123 Rocket 3.9 20:35:16 10° N 20:41:33 85° E 20:47:50 10° S
Cosmos 1726 2.9 20:38:18 10° SSW 20:41:55 51° WNW 20:45:31 10° N
FengYun 1-2 T 4.2 20:38:43 10° SSE 20:44:13 83° WSW 20:49:45 10° NNW
SL-8 R/B 4.0 20:41:18 10° W 20:46:04 61° N 20:47:07 48° NE
Cosmos 1605 Rocket 3.8 20:41:38 10° S 20:47:40 68° E 20:53:43 10° NNE
Cosmos 2219 Rocket 2.7 20:44:41 10° NNW 20:50:12 59° WSW 20:55:32 11° S
Cosmos 967 Rocket 4.5 20:45:29 10° NNW 20:51:56 65° NE 20:53:40 48° ESE
Cosmos 1470 Rocket 4.2 20:51:24 10° N 20:54:35 43° NNE 20:54:35 43° NNE
FREGAT/IRIS 4.3 20:56:22 33° W 20:56:22 33° W 20:58:49 10° NNW
Cosmos 2251 Rocket 4.4 20:53:30 10° S 20:56:38 35° SSE 20:56:38 35° SSE
Envisat 3.4 21:01:48 48° NNE 21:01:48 48° NNE 21:05:50 10° N
SJ-6B 3.5 21:06:28 49° W 21:06:28 49° W 21:10:00 10° NNW
NOSS 0 Rocket 4.3 21:01:49 10° NNW 21:07:52 60° WSW 21:11:40 23° S
Resurs 01 Rocket 2.8 21:11:19 34° N 21:11:19 34° N 21:13:51 10° N
Lacrosse 5 rocket 3.6 21:07:16 10° NW 21:09:34 17° N 21:09:34 17° N
MOS 1-B Rocket 3.8 21:09:36 43° SSE 21:11:38 88° WSW 21:17:55 10° NNW
CZ-4C R/B 2.9 21:06:26 10° WSW 21:11:38 53° NW 21:15:05 24° NNE
Thor Agena Rocket 4.4 21:08:20 10° N 21:13:14 49° WNW 21:18:05 10° SW
Cosmos 1447 Rocket 4.4 21:13:20 10° N 21:19:43 90° WSW 21:21:16 54° S
BREEZE M DEB (TANK) 3.9 21:08:04 10° WNW 21:22:40 79° SSW 21:23:11 72° SSE
Cosmos 2237 Rocket 2.7 21:20:27 10° NNW 21:26:03 57° WSW 21:27:16 47° SSW
USA 267 3.8 21:32:24 43° S 21:32:24 43° S 21:36:56 10° SSW
Cosmos 2227 Rocket 2.5 21:29:18 10° SSW 21:34:03 61° WSW 21:34:03 61° WSW
SL-16 R/B 2.8 21:32:32 10° NNW 21:36:40 49° NNW 21:36:40 49° NNW
Meteor 2-3 Rocket 4.4 21:44:42 10° NNW 21:50:10 53° W 21:50:10 53° W
CZ-3A R/B 3.7 21:38:47 10° NW 21:56:05 85° NE 21:56:32 80° E
ATLAS 5 CENTAUR R/B 4.2 21:51:43 10° NNW 21:54:05 19° N 21:54:05 19° N
Cosmos 2333 Rocket 4.5 21:56:14 10° NW 22:00:17 20° W 22:03:41 12° SW
USA 234 3.8 22:08:10 50° NNW 22:08:10 50° NNW 22:13:09 10° NW
Cosmos 2297 Rocket 4.2 22:07:04 10° SW 22:08:58 21° WSW 22:08:58 21° WSW
